GFSGL_850_thetae_132.txt.gz
Theta_e
328 327 326 326 325 325 326 327 326 326 325 323 321 320 318 317 316 315 314 313 313 313 314 317 317 316 318 318 318 318 317 317 316 316 316 315 314 314 315 314 314 314 314
322 322 323 323 323 322 321 321 318 316 315 314 314 313 312 312 312 311 311 311 313 314 314 315 316 316 318 317 317 316 316 316 315 314 314 313 313 313 314 313 313 313 313
323 322 322 320 320 322 320 322 315 313 312 311 311 311 310 310 309 309 310 311 313 314 315 315 316 316 316 316 316 315 315 314 314 313 312 312 312 312 312 313 313 313 314
315 316 315 315 314 315 314 313 312 310 309 307 307 307 309 309 309 310 311 310 310 312 313 314 314 314 315 315 314 314 314 313 312 311 311 311 312 313 313 313 314 314 314
314 314 314 313 313 311 309 307 306 306 306 307 308 309 310 310 309 308 309 309 310 312 313 313 314 313 312 310 310 310 311 311 312 312 312 312 313 314 314 315 314 313 314
310 314 311 308 308 307 306 307 307 308 308 309 310 310 310 310 308 307 309 310 308 310 312 312 313 312 312 311 310 310 310 309 310 312 313 313 314 314 314 314 314 313 312
307 305 303 303 304 305 307 307 308 308 308 308 309 308 306 307 307 308 309 309 309 309 311 311 311 312 312 313 312 313 313 312 312 312 311 312 312 314 314 312 313 312 311
302 302 304 305 306 307 307 307 306 307 307 306 307 307 306 307 306 307 308 307 308 309 310 310 311 311 313 313 312 314 316 317 317 316 315 314 312 312 311 310 309 309 309
303 305 307 306 305 305 304 304 304 304 304 304 305 305 308 305 306 307 310 312 313 314 315 314 314 314 313 314 313 314 316 317 315 314 314 314 313 313 312 307 308 308 308
305 305 306 305 305 304 304 303 303 302 303 304 303 305 305 307 309 310 312 313 316 315 315 315 314 312 315 315 311 313 312 312 313 315 315 314 312 313 314 309 308 307 307
304 304 306 305 303 302 302 303 303 304 304 304 304 304 306 309 311 312 313 315 314 315 315 314 314 315 315 313 313 313 314 315 315 314 314 314 314 314 313 311 308 307 307
305 305 302 301 302 303 304 304 304 305 305 306 307 308 309 310 311 312 313 313 314 313 313 313 314 315 316 315 315 315 316 316 315 315 314 313 313 313 312 311 307 307 307
301 301 301 301 302 303 304 304 304 304 304 305 306 307 309 310 312 313 313 313 315 315 315 314 315 315 316 316 315 316 316 315 314 314 313 312 312 312 310 308 308 308 308
303 303 303 301 302 305 305 304 303 302 302 304 305 306 308 310 312 313 312 312 315 316 315 312 314 314 314 315 316 317 317 316 316 314 314 313 311 310 309 308 309 309 308
303 303 300 304 303 304 304 303 301 300 301 302 302 303 307 310 310 309 308 311 314 314 312 313 314 314 315 316 316 315 317 317 315 314 314 315 311 310 309 308 308 308 309
301 302 302 303 302 298 301 300 300 299 299 299 300 303 305 306 308 308 308 311 314 314 312 310 311 312 310 311 313 316 315 316 317 316 316 317 311 312 310 308 309 310 310
300 300 301 299 298 297 299 301 300 298 298 299 301 303 304 306 308 309 309 311 313 309 311 308 309 309 308 308 309 312 314 315 316 316 315 315 315 312 312 312 312 311 310
296 298 299 299 295 295 298 299 300 300 300 301 301 302 304 306 307 309 310 311 309 312 303 302 307 308 308 307 309 313 314 315 314 314 313 312 314 313 312 311 311 311 312
295 294 297 297 298 294 297 298 298 298 299 300 300 301 303 304 306 307 308 309 305 303 306 298 298 308 309 310 310 311 313 313 312 312 311 311 312 313 313 313 313 314 315
292 293 294 294 294 295 294 295 296 297 296 297 296 299 302 302 305 306 306 304 302 300 300 298 296 301 308 310 313 313 315 315 315 313 313 313 312 311 311 312 312 310 310
292 291 291 291 291 291 291 290 290 289 289 289 289 290 296 292 293 298 299 301 299 299 295 298 293 294 301 306 309 312 313 315 315 315 314 314 313 313 312 311 311 312 313
291 291 290 290 289 288 288 289 289 289 289 288 288 288 288 289 289 290 291 293 296 295 295 295 292 291 295 300 305 307 311 314 315 315 315 314 314 313 313 312 311 312 311
290 290 290 289 289 288 288 287 287 288 288 289 289 289 289 288 288 289 289 289 289 290 290 291 293 292 291 293 294 298 304 309 313 313 314 314 314 314 313 313 313 311 310
289 289 289 289 288 288 288 288 287 287 287 288 288 288 288 288 288 288 288 288 288 288 288 288 289 289 291 291 291 292 294 300 307 312 312 313 314 314 313 313 313 313 312
288 288 288 288 288 288 288 288 288 287 287 287 287 287 287 287 288 288 288 288 288 288 288 288 288 288 289 289 290 290 291 293 299 306 308 311 313 313 313 313 313 313 313
287 287 287 287 287 287 287 287 287 287 287 287 287 287 287 287 287 287 287 287 287 287 287 287 287 287 288 289 289 290 290 291 292 298 302 304 309 311 312 312 313 313 313

GFSGL_850_thetae_135.txt.gz
Theta_e
335 333 331 329 327 327 327 327 328 327 327 327 327 322 321 321 321 319 317 318 320 320 320 320 320 320 320 320 320 320 320 319 319 318 318 318 317 316 316 315 313 315 315
327 325 324 323 323 322 321 320 319 319 318 316 316 315 314 316 317 317 317 316 317 317 316 317 318 319 319 319 319 319 319 319 317 317 317 317 316 315 315 315 314 315 315
322 322 321 321 320 318 317 314 313 313 312 312 311 312 310 312 314 314 314 314 315 316 316 316 317 317 317 317 317 316 315 315 315 315 316 315 314 313 314 313 313 314 315
319 318 317 315 314 313 312 311 311 309 309 308 309 309 312 314 314 313 313 311 309 312 314 315 316 316 315 315 315 315 314 314 314 314 314 314 314 314 314 315 314 314 315
315 314 313 312 311 310 309 309 308 309 308 308 312 313 313 313 312 311 310 309 309 310 312 313 314 315 314 313 313 313 312 312 313 312 313 314 314 315 316 316 316 316 316
313 313 312 310 311 309 310 311 312 311 312 313 313 313 312 310 310 310 310 310 309 309 311 312 313 313 314 314 313 313 314 314 313 313 313 313 313 314 314 315 315 316 315
309 309 309 309 309 309 311 311 311 311 311 312 311 311 310 308 308 308 309 308 308 311 312 312 313 313 314 313 313 314 315 315 314 313 312 311 311 314 313 311 311 311 311
309 308 308 309 310 310 309 308 308 308 308 309 309 309 308 307 307 308 310 312 314 314 315 315 314 314 313 313 313 313 313 314 314 313 312 310 309 310 309 308 308 309 309
309 309 309 309 309 308 308 307 306 306 305 305 306 307 306 306 307 311 312 314 315 315 316 311 311 311 312 310 311 313 315 316 316 315 315 313 313 312 311 309 306 306 307
308 308 308 308 308 306 305 305 305 304 305 303 304 304 305 307 310 312 313 314 315 316 315 312 310 311 313 313 311 311 314 315 316 316 314 313 313 313 313 312 309 307 307
307 307 307 306 306 305 304 305 305 306 304 304 305 306 306 309 310 312 312 314 316 315 311 310 311 312 313 313 312 312 312 314 315 314 314 313 312 313 312 311 311 309 307
306 305 304 304 304 304 303 302 303 305 305 305 307 306 305 310 311 312 312 314 314 312 307 308 307 309 313 314 314 315 316 316 316 314 315 315 311 310 311 310 309 307 306
303 303 303 302 302 301 301 300 299 301 305 305 307 307 309 310 311 311 312 313 313 308 307 306 311 314 314 314 314 316 316 315 315 314 314 313 311 310 309 308 307 307 306
304 302 302 303 302 302 301 303 303 303 304 304 305 307 308 310 311 312 310 312 313 309 308 311 313 313 313 314 315 316 316 314 314 314 312 312 311 309 308 308 308 308 307
302 300 302 302 301 300 302 301 301 302 303 304 303 305 306 309 310 308 307 310 310 305 306 311 314 314 315 315 314 313 314 314 313 314 313 313 311 310 309 309 309 309 309
301 300 302 301 301 300 297 298 300 299 300 301 302 303 304 305 307 308 307 308 307 303 304 309 310 310 309 308 310 311 311 311 311 312 312 314 312 313 311 311 311 311 312
299 300 298 300 300 299 298 300 299 298 298 300 300 301 303 305 306 307 308 305 303 303 303 302 306 309 309 307 308 308 310 311 311 311 311 311 312 311 312 312 313 313 313
298 299 298 298 299 298 296 299 299 299 299 300 300 301 304 305 306 307 307 304 300 301 299 299 300 306 310 309 309 309 312 313 313 313 312 311 312 311 312 311 311 312 312
297 298 298 298 297 297 296 298 298 295 297 298 299 300 302 301 302 304 307 305 296 296 299 296 295 300 305 309 310 311 312 313 313 313 313 310 311 311 311 310 309 309 310
294 294 296 298 298 297 296 295 293 292 292 292 291 293 296 294 298 300 300 300 300 296 297 293 292 295 299 302 306 310 312 314 314 314 313 313 313 312 312 310 310 308 308
295 294 293 293 293 294 294 293 292 292 291 291 291 290 291 293 294 294 293 292 293 293 293 295 291 291 293 296 299 303 309 313 313 313 314 313 313 313 314 312 310 308 306
294 293 293 292 292 291 291 291 291 291 291 292 292 291 291 292 292 292 292 293 292 291 290 289 289 290 290 291 293 295 299 307 312 313 313 313 313 313 313 313 312 311 310
293 293 292 292 292 291 291 290 290 290 291 291 291 291 292 292 292 292 292 292 292 292 291 290 290 289 289 289 290 290 292 296 305 308 312 310 313 313 313 313 313 313 312
292 292 292 292 291 291 291 291 290 289 290 290 290 290 291 291 291 291 291 291 291 291 291 291 291 289 288 289 289 289 290 291 297 302 305 305 311 312 312 312 312 312 313
292 292 292 292 292 292 291 291 290 290 290 290 290 290 290 290 290 290 290 290 290 291 290 290 290 289 287 288 288 289 289 290 292 297 298 299 307 308 310 311 312 312 312
291 291 291 291 291 290 290 290 290 290 290 289 289 289 289 289 289 289 289 289 289 290 290 290 289 289 288 288 289 289 289 290 290 292 294 295 300 300 306 309 310 311 311

GFSGL_850_thetae_138.txt.gz
Theta_e
340 339 337 336 334 332 331 329 329 329 328 327 326 323 322 320 320 319 317 316 317 317 317 317 316 317 317 319 320 320 319 320 321 321 320 319 318 316 315 316 315 315 314
332 331 330 328 327 326 325 324 323 321 319 318 315 315 315 316 316 314 313 314 314 314 315 316 316 315 316 316 317 318 317 317 317 316 316 315 316 315 314 315 314 314 313
327 324 323 322 321 320 319 318 315 313 313 312 311 310 310 313 314 314 315 315 314 314 311 309 312 314 315 315 315 315 314 314 313 314 314 314 314 314 315 314 315 315 315
320 319 318 316 315 314 313 313 311 312 313 313 314 315 315 315 314 313 312 311 310 310 311 311 312 313 314 315 313 313 313 314 313 313 313 313 314 314 315 315 316 316 316
317 316 314 313 313 311 311 311 311 312 313 314 315 314 314 312 311 310 311 311 311 310 310 311 312 313 312 314 315 314 314 314 313 313 313 313 313 314 314 314 315 315 315
314 313 313 313 312 312 313 313 312 312 311 310 311 311 310 309 308 310 310 310 311 312 312 313 313 314 314 314 314 314 314 313 312 311 309 309 312 312 311 310 310 311 312
311 311 312 312 312 311 310 310 309 309 309 309 309 309 308 308 307 310 311 314 315 315 313 314 315 313 312 313 312 312 313 314 313 311 310 312 310 313 310 308 308 308 309
311 311 311 311 311 310 309 308 307 307 307 306 306 307 306 307 307 311 313 315 315 315 314 313 311 310 310 309 310 312 314 315 315 315 314 315 314 312 313 311 309 307 307
311 310 310 310 309 308 307 306 306 306 306 305 304 305 305 307 310 312 313 315 316 315 314 310 309 308 308 310 313 314 315 316 316 315 314 313 313 311 311 310 310 309 308
310 309 309 307 306 306 306 307 307 306 304 304 305 305 308 310 312 313 313 315 315 314 310 308 308 311 311 311 310 312 314 315 315 314 313 313 314 311 310 310 309 308 307
308 307 307 306 306 307 306 306 306 306 307 308 307 305 309 311 311 312 313 313 311 310 308 310 310 311 310 311 311 311 310 312 314 314 313 312 312 312 309 309 308 308 307
306 305 305 305 305 306 307 305 306 307 307 308 308 308 309 311 310 310 313 310 309 309 307 308 310 310 311 312 313 314 315 314 314 313 312 311 312 310 308 307 307 307 306
305 304 305 305 306 306 307 306 306 305 306 307 307 308 309 310 310 310 312 311 310 308 308 309 311 312 313 313 314 315 314 313 312 312 312 312 313 309 309 307 308 306 305
303 304 304 304 303 303 303 304 304 305 305 304 305 307 308 309 309 310 310 310 309 307 306 309 312 312 311 311 313 312 311 310 309 310 312 312 312 310 310 309 309 309 308
302 304 304 302 301 300 302 302 302 303 304 303 304 305 307 309 307 307 306 307 305 304 304 309 312 313 313 312 312 312 312 311 310 310 311 311 312 312 312 311 311 311 309
302 302 302 301 300 299 301 302 301 301 302 301 302 303 304 305 304 305 305 305 304 302 303 307 308 310 309 309 309 311 312 311 310 310 309 309 311 311 312 313 312 311 311
302 300 300 300 299 299 301 300 299 298 299 298 298 299 302 303 305 305 304 303 305 305 304 301 302 305 308 309 308 307 310 311 312 310 310 310 310 310 310 311 312 311 311
300 299 299 299 299 297 298 298 297 298 298 298 299 299 298 298 300 304 303 303 304 302 300 295 297 301 305 309 309 309 311 313 313 313 312 310 310 311 311 311 308 308 309
299 300 299 299 298 297 297 295 295 297 295 292 293 296 295 296 296 296 298 298 297 297 297 293 293 294 296 298 303 308 310 312 312 312 313 313 312 310 311 309 306 306 307
295 296 298 298 298 297 295 295 294 293 293 293 292 292 294 295 294 294 294 293 293 292 292 293 292 292 293 293 295 299 307 310 312 311 312 312 313 312 311 311 308 307 306
296 294 294 293 294 294 294 293 293 293 292 292 292 292 293 293 293 293 293 293 292 292 292 291 289 290 290 291 292 293 296 303 309 310 309 310 310 312 312 312 310 309 307
295 294 294 293 292 292 292 292 292 292 292 292 292 292 292 292 292 292 292 292 292 292 291 291 290 288 289 290 290 291 292 296 301 305 307 307 308 311 312 311 311 310 310
294 293 293 293 293 292 292 291 291 291 291 291 291 291 291 291 291 291 291 292 291 291 291 291 291 288 288 289 289 290 290 292 296 298 300 302 305 309 311 312 312 310 310
294 294 293 293 292 292 292 292 291 291 291 291 290 290 291 290 290 290 290 290 291 291 290 289 290 289 288 289 289 289 289 291 293 296 299 297 303 305 309 311 311 312 311
293 293 293 293 293 292 292 292 291 291 290 290 290 289 289 290 289 289 289 289 290 290 289 289 289 289 287 288 289 289 289 290 291 293 297 298 298 300 303 306 309 311 310
292 292 292 292 292 291 291 291 290 291 290 290 290 289 289 288 288 288 288 288 288 289 288 288 287 288 286 287 288 289 289 290 290 291 291 296 296 296 298 299 303 307 309

GFSGL_850_thetae_141.txt.gz
Theta_e
341 345 343 341 342 341 339 335 332 330 329 328 326 324 322 321 319 317 315 314 313 313 313 313 313 314 314 313 313 314 315 316 317 316 315 314 314 314 313 313 312 313 314
341 341 339 338 337 334 331 328 326 323 320 316 314 313 312 312 311 311 312 313 313 313 313 311 310 309 310 312 313 314 313 314 313 313 312 313 313 313 313 313 314 315 315
335 336 336 330 325 321 319 316 314 313 312 311 311 312 313 313 314 314 313 312 311 311 311 311 311 311 313 313 313 313 313 313 314 314 314 313 313 314 314 314 314 314 315
332 327 321 317 316 314 313 312 312 312 312 313 314 314 314 314 314 311 309 311 311 310 309 311 312 313 312 313 313 313 313 313 313 313 313 313 312 313 312 312 313 313 314
319 316 315 313 312 312 311 312 312 312 312 311 313 314 313 311 309 310 310 310 313 315 315 314 312 312 313 313 313 313 312 311 311 310 310 311 314 314 313 313 312 312 311
314 313 313 312 312 312 312 310 309 308 309 309 309 308 308 307 307 310 312 314 314 314 315 314 313 311 310 311 310 310 310 310 310 310 310 310 313 313 313 312 310 309 308
312 312 311 311 309 309 309 308 308 308 307 306 306 306 307 306 308 312 313 314 315 315 312 310 310 310 310 313 314 314 315 314 313 312 311 313 312 313 312 312 311 309 309
311 311 310 309 309 308 308 308 307 306 306 305 305 305 306 307 309 312 313 314 313 312 312 310 311 312 313 315 315 315 315 314 314 314 312 312 313 312 312 312 310 309 310
310 310 309 308 307 307 308 307 307 308 304 304 304 305 307 309 311 311 313 313 313 314 312 312 313 313 313 313 314 314 314 314 314 314 313 312 312 312 312 310 308 309 308
309 308 307 306 307 307 307 308 308 307 307 306 305 308 309 310 310 311 313 313 313 314 313 313 313 312 312 312 311 311 311 312 312 313 312 312 311 310 309 308 308 307 307
308 307 306 307 307 307 308 307 308 308 308 307 309 309 310 309 310 312 313 313 312 312 311 312 311 310 311 311 310 309 309 310 311 312 312 313 310 310 309 307 306 307 307
305 306 306 307 307 307 307 307 308 309 309 309 309 309 308 308 310 311 311 311 310 310 310 310 311 311 310 311 311 311 309 310 311 312 312 311 310 311 310 309 307 304 306
304 305 305 305 305 306 307 308 308 308 308 308 308 309 309 308 309 310 310 310 309 309 309 312 312 312 312 312 311 310 310 310 310 310 310 311 311 312 311 311 308 306 308
304 303 303 303 303 305 306 306 306 307 305 304 306 307 307 308 308 309 309 310 309 310 311 312 313 312 312 313 313 311 310 310 310 310 309 309 309 311 311 312 312 309 308
303 302 302 302 302 303 304 304 305 305 304 304 304 305 306 306 304 304 306 308 308 308 311 312 313 313 313 313 313 312 311 311 310 310 310 310 309 309 311 312 311 311 310
302 301 301 300 300 303 303 302 300 299 300 299 298 299 299 301 300 302 303 306 307 307 310 310 310 306 309 311 311 311 311 312 311 310 310 309 309 309 307 308 311 310 310
301 300 300 300 300 301 300 298 295 297 298 297 296 296 295 295 297 300 301 302 304 307 306 298 297 297 299 305 308 308 310 310 311 312 311 310 308 309 307 305 307 309 309
299 300 299 299 298 298 297 297 294 293 294 297 296 296 296 295 294 296 299 300 301 303 302 295 292 293 294 296 302 307 308 310 311 311 311 311 309 308 307 305 306 307 309
299 299 298 297 297 296 296 295 294 296 293 294 295 294 294 294 294 294 295 297 296 293 291 290 290 291 291 292 295 299 304 307 309 310 310 311 309 308 308 306 306 306 307
297 298 297 297 295 294 293 293 293 292 292 292 292 293 293 293 293 292 293 292 292 292 290 289 289 289 290 291 292 294 299 304 308 309 309 310 309 310 309 309 308 307 306
294 294 294 294 294 293 292 292 292 292 292 292 291 292 292 292 292 292 291 291 291 291 291 289 288 289 289 290 291 291 293 297 303 307 306 308 307 310 310 309 308 308 306
294 293 292 292 291 292 291 291 291 291 291 291 291 291 291 291 291 292 291 291 291 290 290 289 288 288 289 289 290 290 291 292 298 303 305 305 306 308 310 310 310 308 308
293 293 293 292 292 291 291 291 291 291 290 290 291 290 290 290 290 290 290 290 290 290 289 289 288 288 288 289 289 289 290 291 294 298 301 302 303 304 306 309 310 310 310
293 293 293 292 292 291 291 290 290 290 290 290 290 290 289 289 289 289 289 289 289 289 288 288 288 287 288 288 289 289 289 290 291 296 297 298 300 302 302 305 308 310 309
293 293 292 292 291 291 291 291 290 290 290 289 289 289 289 288 288 288 288 288 288 288 287 287 287 287 287 288 288 289 289 289 290 293 296 295 297 300 300 300 302 306 308
292 292 292 291 291 291 290 290 290 290 289 289 288 288 288 288 287 287 287 287 287 287 286 286 287 286 287 288 288 288 289 289 290 290 292 294 294 295 297 297 300 300 304

GFSGL_850_thetae_144.txt.gz
Theta_e
343 343 342 342 344 343 340 340 337 332 329 328 326 324 321 318 316 314 313 312 312 312 311 310 309 310 311 311 312 312 313 313 313 313 313 312 313 313 313 314 314 314 314
341 343 340 340 339 337 336 332 329 327 323 318 314 313 312 312 312 312 313 311 308 308 310 311 311 310 311 311 312 313 313 312 312 312 312 313 313 313 313 312 313 313 313
340 338 336 336 335 332 328 324 319 316 314 313 313 313 313 313 313 312 309 309 310 311 310 310 311 313 313 312 312 312 312 312 312 312 312 312 312 314 313 314 314 314 313
335 334 332 328 326 319 317 314 313 313 313 312 313 313 313 311 309 308 310 310 312 314 315 315 313 312 312 312 311 310 310 309 309 310 310 311 313 314 313 312 312 312 311
328 326 322 319 316 314 313 312 312 312 311 311 311 310 308 308 309 310 313 314 315 315 316 314 312 311 310 310 310 312 311 311 312 311 311 312 314 314 312 310 310 311 311
319 317 314 313 312 313 312 309 308 308 308 308 308 307 307 308 311 313 314 315 315 314 314 314 313 313 314 314 313 312 310 309 309 308 311 311 311 311 309 309 309 308 308
314 313 312 311 310 308 308 308 308 308 308 307 306 305 306 307 310 313 314 313 314 313 313 313 314 314 314 315 314 314 314 312 309 308 308 310 309 310 308 310 310 309 309
311 310 309 308 308 308 308 309 309 308 307 305 305 306 307 309 311 313 312 313 313 313 313 313 313 313 313 313 313 313 313 312 313 312 310 311 311 310 309 309 308 308 308
309 308 308 308 308 308 308 309 309 307 305 305 306 308 310 312 312 312 312 313 313 313 313 312 311 312 312 313 312 310 310 310 311 311 312 312 310 309 310 309 307 306 308
308 307 307 307 308 308 308 309 309 307 306 306 308 310 311 310 312 313 312 312 313 312 313 312 312 311 311 311 311 309 309 310 311 312 312 311 310 311 311 309 307 305 306
307 307 307 307 307 308 308 308 308 308 308 309 310 310 310 311 312 313 312 312 312 312 313 312 312 312 311 310 311 310 309 310 310 310 311 311 311 311 310 308 306 306 306
306 307 307 307 307 307 307 307 307 308 308 309 309 309 309 310 311 311 312 311 311 312 312 311 312 313 313 313 312 311 311 310 310 310 309 309 308 310 311 310 307 308 308
306 305 305 306 307 307 307 307 307 307 308 308 308 309 308 308 308 310 310 309 310 311 310 311 312 313 312 312 312 312 312 311 311 310 310 309 308 307 311 311 309 309 309
304 304 304 304 305 306 306 306 306 306 305 306 306 307 306 307 308 308 307 309 309 310 310 311 312 312 312 311 311 312 312 310 309 310 309 309 308 308 308 311 311 310 309
303 302 302 303 303 304 304 304 305 304 304 304 303 304 305 305 305 302 303 307 307 307 307 308 309 310 311 311 311 311 311 311 311 310 309 308 306 306 306 309 310 310 309
302 301 301 302 302 303 303 302 301 301 301 301 299 297 297 296 298 299 300 302 303 306 306 305 301 299 301 306 309 310 309 310 311 311 309 308 307 307 306 308 309 309 309
300 300 300 301 302 301 299 300 300 298 299 299 298 297 297 296 296 295 297 300 302 304 305 299 295 294 295 298 303 306 308 308 310 310 310 309 307 307 305 306 307 308 307
300 299 300 300 300 299 298 296 295 296 296 295 295 294 295 296 295 298 298 295 296 295 293 293 291 291 292 293 296 303 306 308 309 310 310 310 309 307 307 305 305 305 305
297 297 295 295 295 294 293 293 294 294 294 294 293 293 293 292 292 293 293 293 292 290 290 289 290 290 290 291 292 295 303 306 307 309 310 310 309 308 308 306 305 304 305
298 296 294 293 293 293 292 292 292 292 292 293 293 292 293 292 292 291 291 290 290 289 288 289 289 289 290 290 291 292 299 304 306 307 308 310 310 308 308 307 305 305 306
295 295 294 293 292 292 292 292 292 292 291 291 291 292 292 292 291 291 291 290 289 289 288 288 288 289 289 290 290 291 293 299 302 304 305 308 308 309 309 309 309 307 307
292 293 292 292 292 291 291 291 291 291 291 290 290 291 291 291 290 290 290 289 289 288 288 287 287 288 288 289 290 290 290 295 298 301 303 304 305 308 308 309 309 309 308
292 292 291 291 291 291 291 290 290 290 290 290 290 290 290 290 290 289 289 289 289 288 287 287 287 288 288 288 289 289 289 291 295 295 299 301 302 304 305 307 308 308 309
292 292 291 291 291 290 290 290 290 289 289 289 289 289 288 289 288 288 288 288 288 287 287 287 287 287 287 288 288 288 289 289 292 294 295 296 300 302 303 302 306 307 308
292 292 291 291 291 291 290 290 289 289 289 289 288 288 288 287 287 288 287 287 287 286 286 286 287 287 287 287 288 288 288 289 289 291 293 294 295 299 300 299 299 304 307
292 292 291 291 291 290 290 290 290 289 289 288 288 288 287 287 287 286 286 286 286 286 286 286 286 286 287 287 287 288 288 288 289 289 291 292 293 295 298 298 298 298 302

GFSGL_850_thetae_147.txt.gz
Theta_e
344 341 341 341 341 340 338 338 339 336 330 328 327 326 323 318 314 313 312 312 310 307 308 310 310 310 310 311 312 313 312 312 311 311 311 311 312 312 313 314 314 314 314
342 340 340 338 340 340 339 337 335 329 326 322 317 315 313 313 313 312 309 307 308 309 311 311 313 315 314 313 312 312 311 310 310 310 310 311 314 313 313 313 314 314 313
340 339 338 338 337 335 333 328 323 317 315 314 314 313 313 312 308 307 308 310 311 313 315 315 315 313 314 313 311 310 311 313 312 310 311 312 311 311 313 313 313 313 314
338 336 332 331 328 327 323 318 315 314 313 313 312 310 308 307 308 310 311 314 315 315 314 314 313 312 310 310 312 312 312 312 312 312 312 310 310 312 311 310 310 311 311
335 329 325 320 319 317 315 313 313 312 309 308 307 308 308 308 311 313 315 315 314 314 313 313 313 312 312 313 312 312 311 310 310 309 310 309 311 311 310 310 309 309 310
327 323 318 316 314 313 312 310 308 307 308 308 308 308 308 311 314 314 314 313 313 313 313 313 313 313 314 313 311 310 308 306 308 306 308 307 310 310 310 309 308 307 306
319 316 314 312 311 309 308 308 309 309 309 308 307 308 309 311 313 313 313 313 313 313 313 313 313 313 313 312 311 310 310 309 307 305 307 309 309 310 309 309 310 308 307
314 312 309 308 308 308 309 309 309 308 308 307 307 308 310 311 312 312 312 312 312 313 313 313 313 313 312 311 311 311 310 310 310 309 309 310 310 310 310 309 308 307 305
309 308 307 308 308 309 309 309 308 308 307 306 308 309 311 312 312 311 311 312 313 312 313 313 313 312 312 312 312 311 311 311 310 310 310 310 310 311 309 309 306 306 306
307 307 307 308 308 309 309 309 309 308 308 308 310 311 311 311 312 312 311 311 312 313 313 313 313 313 313 312 312 311 311 310 310 310 310 310 310 311 310 308 307 307 307
307 307 307 308 308 308 309 309 309 309 309 309 310 310 310 310 311 312 312 311 311 312 313 313 313 312 312 312 312 312 311 310 310 310 309 308 308 309 309 309 308 307 307
307 307 307 308 308 308 308 309 309 309 309 310 309 309 310 309 309 310 310 309 309 310 310 312 311 311 311 311 311 311 312 311 310 309 307 306 307 307 308 310 309 309 309
306 307 307 307 308 307 307 308 308 308 308 308 308 308 308 307 307 308 307 307 309 307 305 307 310 310 310 311 311 311 311 311 309 307 307 306 305 305 308 311 310 310 309
305 305 305 306 306 306 306 305 306 306 306 306 307 307 306 306 307 306 307 307 306 305 303 303 304 306 309 310 310 310 310 310 308 308 307 306 306 306 308 309 309 309 310
304 304 304 305 305 305 305 304 304 304 304 304 303 302 302 304 303 300 301 306 307 305 302 303 305 305 304 304 308 309 310 311 311 310 308 307 307 306 305 307 308 309 308
304 303 303 304 304 304 303 302 302 301 303 302 300 299 298 296 295 297 299 302 301 301 304 303 300 297 295 297 304 307 308 309 310 310 309 308 306 305 306 305 307 307 307
302 302 302 302 301 301 300 300 300 298 297 297 296 297 297 297 299 298 296 296 297 297 297 294 293 293 292 293 299 303 306 307 309 309 309 308 307 305 305 304 305 306 306
300 300 301 299 298 298 297 297 297 296 295 295 294 293 293 293 294 295 298 299 300 294 291 290 290 290 291 291 295 302 303 306 307 309 309 309 308 306 306 305 304 304 305
298 298 297 296 296 295 294 294 294 294 294 293 293 292 292 292 292 291 291 291 289 289 289 289 289 290 290 290 292 298 300 303 304 306 308 308 308 307 307 306 306 305 306
294 294 294 294 293 293 292 292 291 292 292 292 292 292 292 291 291 290 290 289 289 288 288 288 289 289 289 290 290 294 297 301 304 304 305 307 308 308 307 307 307 306 306
295 294 293 292 292 292 291 291 291 290 291 291 291 291 291 290 290 290 289 288 288 288 287 288 288 288 289 289 290 290 294 295 297 301 302 304 306 308 308 307 308 308 308
294 293 292 292 291 291 291 291 291 290 290 290 290 290 290 290 289 289 289 288 287 287 287 287 287 287 288 288 289 289 290 292 293 294 297 301 302 304 307 307 307 308 308
292 291 291 291 291 290 290 290 290 290 289 289 289 289 289 288 288 288 287 287 286 286 286 287 287 287 287 287 288 288 289 289 292 293 293 296 300 300 302 305 306 307 307
291 291 290 290 290 290 290 289 289 289 288 288 288 288 288 287 287 287 287 286 286 286 286 286 286 287 287 287 287 288 288 288 289 292 292 293 296 298 300 302 304 306 306
291 291 291 291 290 290 289 289 289 289 288 288 288 287 287 286 286 286 286 286 286 286 286 286 286 286 286 287 287 287 288 288 289 290 291 292 293 295 296 298 301 304 305
292 291 291 291 290 290 290 289 289 288 288 288 287 286 286 286 286 285 285 285 285 286 286 286 286 286 286 287 287 287 287 287 288 289 290 291 292 292 293 294 297 299 302

GFSGL_850_thetae_150.txt.gz
Theta_e
343 341 342 341 338 332 333 336 335 334 333 332 329 327 324 316 313 312 311 307 307 309 311 313 315 315 315 314 313 313 313 310 310 312 312 312 312 311 312 313 314 314 314
340 340 338 337 336 336 335 333 329 327 325 324 319 314 313 313 311 308 307 309 311 314 315 315 314 314 313 313 313 312 311 312 310 310 311 311 312 311 311 312 312 311 311
339 338 337 337 336 335 333 327 324 324 319 315 314 313 311 308 307 309 312 314 315 314 314 313 313 313 313 314 312 310 310 310 309 309 309 311 312 311 311 311 310 309 309
338 337 336 334 332 330 325 320 318 315 314 312 310 308 308 309 311 314 315 314 313 313 313 313 313 312 312 311 311 310 311 310 310 309 308 309 309 311 310 309 309 310 308
336 334 330 324 321 320 317 315 313 311 309 308 308 308 309 312 314 313 313 313 313 313 313 313 313 312 310 310 310 310 310 310 310 309 309 309 310 310 308 309 308 308 308
331 329 322 319 317 314 313 310 308 308 308 308 308 310 313 313 312 313 313 312 312 312 313 313 312 312 312 311 311 310 310 309 309 307 307 306 308 308 308 309 308 306 305
324 317 315 312 312 309 308 308 309 309 307 308 309 311 313 312 312 312 312 312 312 313 313 313 312 312 312 312 311 311 311 310 309 307 306 306 306 307 307 309 307 307 307
316 313 310 309 308 308 309 309 308 307 308 309 310 311 312 312 312 312 311 312 313 312 313 314 313 313 312 312 312 312 312 311 310 309 307 307 307 307 307 308 308 308 308
310 308 307 308 308 309 309 308 308 308 309 309 310 311 312 312 312 311 311 312 313 313 313 313 312 311 311 311 311 311 311 311 310 308 307 307 308 309 310 309 308 307 308
307 307 308 308 309 309 309 309 309 309 309 310 310 311 311 311 311 312 312 311 312 312 312 312 311 310 311 311 311 311 311 310 309 308 308 308 308 310 310 309 308 308 308
307 308 308 308 308 309 309 309 309 310 310 309 310 310 310 310 311 312 311 310 311 310 309 310 310 310 310 310 310 310 310 310 309 308 307 308 309 309 310 310 309 309 308
308 308 308 308 308 309 308 308 309 309 309 308 308 308 308 308 310 309 309 309 308 308 306 305 305 307 309 309 310 310 310 311 310 309 308 307 307 307 308 309 309 309 308
307 308 308 308 307 307 308 308 308 308 308 307 307 307 306 307 306 307 307 306 305 304 302 302 303 303 303 307 309 310 310 310 310 310 308 306 305 305 305 309 309 309 307
307 307 306 306 306 306 305 305 305 305 305 304 304 304 304 305 305 305 304 304 304 304 300 302 302 299 298 302 307 308 309 309 309 309 308 306 306 305 304 306 308 308 308
305 305 305 304 304 304 304 303 303 303 303 303 302 302 302 302 300 298 300 300 300 299 299 301 302 303 300 297 305 307 308 309 309 309 309 307 306 305 304 304 306 306 306
304 303 303 303 302 302 302 302 301 299 300 301 300 299 298 298 297 296 298 299 299 297 299 298 294 293 293 296 303 305 306 308 308 308 309 308 307 306 305 304 305 305 305
303 302 302 302 301 300 300 299 298 296 296 294 293 293 293 293 293 294 295 296 297 295 293 291 291 291 291 295 299 302 304 304 306 307 308 308 308 307 306 305 305 305 306
300 300 300 299 298 297 297 297 296 296 294 293 293 292 292 292 291 291 290 291 292 291 290 290 290 290 290 292 296 299 302 304 304 304 306 307 308 307 307 306 306 305 305
299 299 298 297 296 295 295 295 294 293 293 292 292 291 291 290 290 290 290 290 289 289 288 289 289 289 289 290 292 294 295 297 300 302 302 305 307 308 307 306 306 306 306
296 294 294 293 293 292 292 291 292 292 292 291 291 290 290 290 290 289 288 288 288 287 288 288 288 288 289 289 290 291 292 293 294 298 301 302 304 306 307 306 306 307 306
294 293 292 292 291 291 291 290 290 290 290 290 290 289 289 289 288 288 288 287 287 287 287 287 287 288 288 289 289 289 290 291 292 293 296 299 300 303 306 306 306 306 306
293 292 291 291 290 290 290 290 290 289 289 289 289 288 288 288 288 287 287 286 286 286 286 286 287 287 287 288 288 289 289 290 291 291 293 295 297 299 303 305 306 306 305
291 291 290 290 290 290 289 289 289 288 288 288 288 287 287 287 287 286 286 286 286 286 286 286 287 287 287 287 287 288 288 289 290 291 291 293 294 296 299 301 304 305 305
291 290 290 290 290 289 289 289 288 288 288 288 287 287 286 286 286 286 286 285 286 286 286 286 286 286 286 287 287 287 287 288 290 290 291 291 292 292 294 298 301 303 304
291 290 290 290 290 289 289 289 288 288 288 287 286 286 286 285 285 285 285 285 286 286 286 286 286 286 286 286 287 287 287 287 288 289 290 290 291 291 291 294 298 301 303
291 291 290 290 290 289 289 288 288 288 287 286 285 285 285 285 285 285 285 285 285 285 285 285 285 286 286 286 287 287 287 287 287 288 289 289 290 290 290 291 293 299 301

GFSGL_850_thetae_156.txt.gz
Theta_e
344 342 340 338 338 335 332 328 329 327 329 332 333 333 330 322 315 310 309 312 314 314 314 314 314 313 313 314 313 313 313 312 312 311 312 311 310 310 309 310 310 310 311
343 341 339 338 338 335 328 329 330 331 334 333 333 326 318 313 309 311 313 314 314 314 313 313 312 311 312 312 312 312 312 312 311 311 311 310 310 308 307 309 309 310 310
339 338 338 338 335 332 333 332 332 333 333 331 323 315 310 309 312 314 314 313 313 313 313 312 311 312 312 312 312 312 311 310 310 309 308 308 309 307 308 309 310 309 308
340 340 338 336 332 333 334 332 332 331 326 317 312 309 310 313 313 313 312 313 313 313 312 312 313 313 312 312 311 311 310 310 308 307 307 308 308 308 308 309 309 309 309
339 336 334 333 333 334 331 329 327 319 314 309 309 311 313 313 313 313 312 313 313 312 313 313 312 311 311 311 311 311 311 309 306 308 308 306 307 306 307 309 309 309 310
335 334 333 332 329 327 324 320 315 310 308 309 311 313 313 312 312 313 313 312 312 311 312 311 310 311 310 310 310 310 310 308 308 306 306 305 305 306 306 307 308 307 307
330 326 321 322 321 317 313 310 309 309 309 310 310 311 312 312 312 312 313 312 312 312 312 311 310 309 309 309 310 310 310 309 307 305 305 305 304 305 305 306 307 307 307
319 317 316 315 313 310 309 309 309 309 310 310 310 311 312 312 312 312 312 312 311 311 310 308 308 307 307 308 309 310 310 309 308 306 305 305 305 305 306 306 306 308 309
314 314 312 311 311 310 310 309 309 309 310 312 312 311 311 311 311 311 311 308 309 308 307 308 308 306 305 306 308 309 309 310 309 306 305 307 307 306 306 307 307 306 307
312 311 311 310 310 309 309 309 309 310 310 310 310 310 310 310 310 310 310 310 307 305 304 303 305 303 302 304 308 309 309 310 307 310 307 305 305 306 306 305 304 304 304
310 310 309 309 308 309 309 309 308 308 309 309 309 308 309 309 309 309 310 309 307 303 302 302 302 301 300 305 307 308 308 309 307 308 308 307 306 307 307 305 304 303 304
308 308 308 308 307 307 309 309 309 309 308 306 305 303 305 306 307 307 306 305 304 302 302 301 299 298 300 306 307 308 309 308 306 308 307 307 307 307 307 305 305 305 304
308 307 307 306 306 307 307 307 306 305 305 304 304 302 300 299 301 302 302 303 304 301 298 295 294 296 301 301 305 306 307 308 307 305 306 306 306 306 306 307 306 307 306
307 306 304 304 303 303 303 303 304 304 303 303 303 302 300 299 302 302 303 303 300 296 296 295 294 296 298 300 300 300 301 304 305 305 306 304 307 307 307 306 306 305 306
304 303 303 302 302 302 301 299 302 302 301 299 297 298 296 294 295 295 295 294 293 293 294 294 294 295 295 295 297 297 298 299 301 301 301 301 305 306 307 306 306 305 304
303 303 302 302 300 299 301 299 296 295 296 295 294 293 294 293 291 290 290 290 291 292 293 293 292 292 292 292 293 294 296 297 298 298 299 300 301 304 305 306 306 305 303
303 302 302 302 301 299 297 295 294 291 291 291 291 291 290 290 289 290 290 290 290 291 292 291 291 291 291 291 291 292 294 294 296 298 299 299 301 301 304 305 305 306 305
302 302 302 301 301 300 300 299 298 296 295 293 290 289 289 289 289 290 291 291 291 291 290 290 290 290 290 290 291 292 293 293 294 296 297 298 299 300 301 303 304 304 304
300 300 300 299 299 298 297 297 296 295 295 294 294 293 291 290 290 290 290 291 290 290 290 289 289 289 289 289 290 291 292 292 293 294 295 297 298 299 300 301 303 305 305
297 296 297 296 296 296 296 295 295 294 293 292 291 292 292 292 292 291 290 290 290 289 289 288 288 288 288 288 289 290 291 292 292 293 294 295 296 299 301 301 301 303 305
295 295 295 295 295 295 295 294 294 293 293 291 289 288 290 291 291 290 290 289 289 288 288 287 287 287 287 287 288 288 290 290 291 292 293 294 295 297 299 300 301 302 304
295 295 295 294 294 294 294 293 293 293 292 292 291 289 289 290 290 289 289 289 288 287 287 287 287 286 287 287 287 287 288 288 289 290 293 294 294 295 297 299 301 302 303
295 294 294 293 293 293 293 293 293 292 291 291 290 290 289 289 289 289 288 288 288 287 287 286 286 286 286 287 287 287 287 288 288 289 292 293 294 294 296 298 300 300 303
294 294 294 293 293 293 292 291 290 290 291 290 290 289 289 288 288 288 288 287 287 287 286 286 286 285 286 286 287 287 287 287 288 289 291 292 293 293 294 295 298 299 300
294 293 293 293 293 292 292 292 291 291 290 290 289 289 288 288 288 287 287 287 287 287 286 286 285 285 285 286 286 286 287 287 287 288 290 291 292 291 293 293 296 299 300
294 294 293 293 293 292 292 292 291 290 289 289 289 288 288 287 287 287 287 286 287 287 286 286 285 285 285 285 286 286 287 287 287 288 289 290 290 291 291 292 294 297 299